TimeCDT,TemperatureF,Dew PointF,Humidity,Sea Level PressureIn,VisibilityMPH,Wind Direction,Wind SpeedMPH,Gust SpeedMPH,PrecipitationIn,Events,Conditions,WindDirDegrees,DateUTC
12:12 AM,69.8,68.0,94,29.91,8.0,ESE,8.1,-,N/A,Rain,Light Rain,110,2013-06-06 05:12:00
12:17 AM,69.8,66.2,88,29.91,10.0,ESE,11.5,-,N/A,Rain,Light Rain,110,2013-06-06 05:17:00
12:58 AM,69.6,64.2,83,29.88,6.0,East,10.4,-,0.10,Rain,Rain,90,2013-06-06 05:58:00
1:47 AM,69.8,64.4,83,29.85,10.0,Variable,3.5,-,N/A,,Clear,0,2013-06-06 06:47:00
1:58 AM,69.3,63.9,83,29.83,10.0,ENE,5.8,-,0.03,,Partly Cloudy,70,2013-06-06 06:58:00
2:58 AM,68.7,62.1,79,29.80,10.0,SE,6.9,-,N/A,,Scattered Clouds,130,2013-06-06 07:58:00
3:58 AM,68.5,59.9,74,29.85,10.0,WNW,4.6,-,N/A,,Overcast,290,2013-06-06 08:58:00
4:13 AM,68.0,60.8,78,29.84,10.0,WNW,3.5,-,N/A,,Overcast,300,2013-06-06 09:13:00
4:53 AM,69.8,59.0,68,29.84,10.0,NNE,2.3,-,N/A,,Overcast,30,2013-06-06 09:53:00
4:58 AM,69.3,60.3,73,29.85,10.0,NE,3.5,-,N/A,,Overcast,50,2013-06-06 09:58:00
5:13 AM,69.8,59.0,68,29.84,10.0,NE,4.6,-,N/A,,Mostly Cloudy,40,2013-06-06 10:13:00
5:58 AM,69.4,56.8,64,29.85,10.0,Calm,Calm,-,N/A,,Overcast,0,2013-06-06 10:58:00
6:58 AM,69.8,57.4,65,29.85,10.0,North,4.6,-,N/A,,Partly Cloudy,10,2013-06-06 11:58:00
7:48 AM,71.6,59.0,64,29.85,10.0,NNW,3.5,-,N/A,,Mostly Cloudy,340,2013-06-06 12:48:00
7:58 AM,71.2,58.3,64,29.87,10.0,North,4.6,-,N/A,,Mostly Cloudy,350,2013-06-06 12:58:00
8:23 AM,71.6,59.0,64,29.86,10.0,NNE,6.9,-,N/A,,Scattered Clouds,20,2013-06-06 13:23:00
8:38 AM,73.4,57.2,57,29.87,10.0,NNE,4.6,-,N/A,,Mostly Cloudy,30,2013-06-06 13:38:00
8:58 AM,73.2,58.1,59,29.88,10.0,NNE,4.6,-,N/A,,Overcast,20,2013-06-06 13:58:00
9:28 AM,75.2,57.2,53,29.88,10.0,NE,4.6,-,N/A,,Overcast,40,2013-06-06 14:28:00
9:58 AM,75.6,57.4,53,29.88,10.0,ENE,5.8,-,N/A,,Mostly Cloudy,60,2013-06-06 14:58:00
10:28 AM,77.0,57.2,50,29.87,10.0,NE,5.8,-,N/A,,Mostly Cloudy,50,2013-06-06 15:28:00
10:58 AM,77.5,56.7,48,29.87,10.0,Variable,3.5,-,N/A,,Mostly Cloudy,0,2013-06-06 15:58:00
11:08 AM,78.8,57.2,47,29.85,10.0,NNE,5.8,-,N/A,,Scattered Clouds,20,2013-06-06 16:08:00
11:58 AM,79.7,56.5,45,29.85,10.0,ENE,5.8,-,N/A,,Scattered Clouds,60,2013-06-06 16:58:00
12:58 PM,82.4,56.3,41,29.83,10.0,Variable,2.3,-,N/A,,Partly Cloudy,0,2013-06-06 17:58:00
1:13 PM,82.4,55.4,39,29.81,10.0,Variable,2.3,-,N/A,,Mostly Cloudy,0,2013-06-06 18:13:00
1:18 PM,82.4,55.4,39,29.81,10.0,North,5.8,-,N/A,,Mostly Cloudy,10,2013-06-06 18:18:00
1:58 PM,83.5,56.1,39,29.81,10.0,North,4.6,-,N/A,,Clear,10,2013-06-06 18:58:00
2:58 PM,84.2,57.7,40,29.79,10.0,North,4.6,-,N/A,,Clear,350,2013-06-06 19:58:00
3:58 PM,86.2,56.3,36,29.75,10.0,NNW,4.6,-,N/A,,Clear,340,2013-06-06 20:58:00
4:58 PM,85.6,56.3,37,29.75,10.0,NNE,4.6,-,N/A,,Clear,20,2013-06-06 21:58:00
5:58 PM,84.2,58.8,42,29.74,10.0,NNE,3.5,-,N/A,,Clear,30,2013-06-06 22:58:00
6:58 PM,81.9,63.5,54,29.74,10.0,West,2.3,-,N/A,,Clear,280,2013-06-06 23:58:00
7:58 PM,80.1,65.1,60,29.75,10.0,West,3.5,-,N/A,,Clear,280,2013-06-07 00:58:00
8:58 PM,78.1,65.7,65,29.77,10.0,NNW,1.2,-,N/A,,Clear,330,2013-06-07 01:58:00
9:58 PM,77.4,66.6,69,29.77,10.0,Variable,4.6,-,N/A,,Mostly Cloudy,0,2013-06-07 02:58:00
10:58 PM,75.2,62.6,65,29.77,10.0,NW,4.6,-,N/A,,Clear,310,2013-06-07 03:58:00
11:58 PM,72.5,63.0,72,29.75,10.0,NW,1.2,-,N/A,,Clear,320,2013-06-07 04:58:00